TimeCST,TemperatureF,Dew PointF,Humidity,Sea Level PressureIn,VisibilityMPH,Wind Direction,Wind SpeedMPH,Gust SpeedMPH,PrecipitationIn,Events,Conditions,WindDirDegrees,DateUTC
12:15 AM,17.6,10.4,73,30.08,10.0,SSW,8.1,-,N/A,,Clear,200,2014-02-03 06:15:00
12:35 AM,17.6,10.4,73,30.07,10.0,SSW,8.1,-,N/A,,Clear,200,2014-02-03 06:35:00
12:55 AM,15.8,10.4,79,30.07,10.0,SSW,8.1,-,N/A,,Clear,200,2014-02-03 06:55:00
1:15 AM,15.8,10.4,79,30.07,10.0,SSW,6.9,-,N/A,,Clear,200,2014-02-03 07:15:00
1:35 AM,17.6,10.4,73,30.06,10.0,SSW,4.6,-,N/A,,Clear,200,2014-02-03 07:35:00
1:55 AM,12.2,8.6,85,30.04,10.0,South,3.5,-,N/A,,Clear,170,2014-02-03 07:55:00
2:15 AM,19.4,10.4,68,30.04,10.0,South,10.4,-,N/A,,Clear,170,2014-02-03 08:15:00
2:35 AM,19.4,10.4,68,30.03,10.0,South,11.5,-,N/A,,Clear,170,2014-02-03 08:35:00
2:55 AM,17.6,10.4,73,30.04,10.0,South,10.4,-,N/A,,Clear,180,2014-02-03 08:55:00
3:15 AM,17.6,10.4,73,30.03,10.0,South,10.4,-,N/A,,Clear,190,2014-02-03 09:15:00
3:35 AM,17.6,10.4,73,30.03,10.0,South,6.9,-,N/A,,Clear,180,2014-02-03 09:35:00
3:55 AM,17.6,10.4,73,30.02,10.0,South,8.1,-,N/A,,Clear,170,2014-02-03 09:55:00
4:15 AM,17.6,10.4,73,30.02,10.0,South,9.2,-,N/A,,Clear,170,2014-02-03 10:15:00
4:35 AM,17.6,10.4,73,30.01,10.0,South,8.1,-,N/A,,Clear,170,2014-02-03 10:35:00
4:55 AM,17.6,10.4,73,30.00,10.0,SSE,8.1,-,N/A,,Clear,160,2014-02-03 10:55:00
5:15 AM,14.0,10.4,86,29.99,10.0,SSE,9.2,-,N/A,,Clear,150,2014-02-03 11:15:00
5:35 AM,15.8,10.4,79,29.99,10.0,SSE,9.2,-,N/A,,Clear,150,2014-02-03 11:35:00
5:55 AM,17.6,10.4,73,30.00,10.0,SSE,9.2,-,N/A,,Clear,160,2014-02-03 11:55:00
6:15 AM,17.6,10.4,73,29.99,10.0,SSE,11.5,-,N/A,,Clear,160,2014-02-03 12:15:00
6:35 AM,17.6,12.2,79,29.99,10.0,SSE,12.7,-,N/A,,Scattered Clouds,150,2014-02-03 12:35:00
6:55 AM,17.6,12.2,79,29.98,10.0,SSE,12.7,-,N/A,,Mostly Cloudy,150,2014-02-03 12:55:00
7:15 AM,19.4,14.0,80,29.98,10.0,SE,11.5,-,N/A,,Overcast,140,2014-02-03 13:15:00
7:35 AM,21.2,14.0,74,29.96,10.0,SE,13.8,-,N/A,,Overcast,140,2014-02-03 13:35:00
7:55 AM,21.2,15.8,80,29.97,10.0,SE,12.7,-,N/A,,Overcast,140,2014-02-03 13:55:00
8:15 AM,21.2,17.6,86,29.98,10.0,SSE,13.8,-,N/A,,Overcast,150,2014-02-03 14:15:00
8:35 AM,21.2,17.6,86,29.98,10.0,SSE,15.0,-,N/A,,Overcast,160,2014-02-03 14:35:00
8:55 AM,23.0,17.6,80,30.00,10.0,South,10.4,-,N/A,,Overcast,170,2014-02-03 14:55:00
9:15 AM,23.0,17.6,80,30.00,10.0,SSE,11.5,-,N/A,,Overcast,160,2014-02-03 15:15:00
9:35 AM,23.0,19.4,86,30.00,10.0,SSE,10.4,-,N/A,,Overcast,150,2014-02-03 15:35:00
9:55 AM,23.0,19.4,86,29.99,10.0,SE,8.1,-,N/A,,Overcast,140,2014-02-03 15:55:00
10:15 AM,24.8,19.4,80,29.99,10.0,SE,8.1,-,N/A,,Overcast,140,2014-02-03 16:15:00
10:35 AM,26.6,21.2,80,29.99,10.0,SSE,11.5,-,N/A,,Overcast,160,2014-02-03 16:35:00
10:55 AM,26.6,21.2,80,29.99,10.0,SSE,8.1,-,N/A,,Overcast,160,2014-02-03 16:55:00
11:15 AM,26.6,21.2,80,29.98,10.0,South,8.1,-,N/A,,Overcast,170,2014-02-03 17:15:00
11:35 AM,26.6,21.2,80,29.98,10.0,SSE,10.4,-,N/A,,Overcast,160,2014-02-03 17:35:00
11:55 AM,28.4,23.0,80,29.98,10.0,South,11.5,-,N/A,,Overcast,170,2014-02-03 17:55:00
12:15 PM,28.4,23.0,80,29.97,10.0,South,8.1,-,N/A,,Overcast,170,2014-02-03 18:15:00
12:35 PM,30.2,24.8,80,29.96,10.0,SSE,12.7,-,N/A,,Overcast,160,2014-02-03 18:35:00
12:55 PM,30.2,26.6,86,29.95,10.0,South,8.1,-,N/A,,Overcast,180,2014-02-03 18:55:00
1:15 PM,30.2,26.6,86,29.93,10.0,South,6.9,-,N/A,,Overcast,180,2014-02-03 19:15:00
1:35 PM,32.0,26.6,80,29.93,10.0,South,9.2,-,N/A,,Overcast,170,2014-02-03 19:35:00
1:55 PM,32.0,26.6,80,29.93,10.0,South,5.8,-,N/A,,Overcast,190,2014-02-03 19:55:00
2:15 PM,32.0,26.6,80,29.92,10.0,SSE,6.9,-,N/A,,Overcast,160,2014-02-03 20:15:00
2:35 PM,32.0,26.6,80,29.91,10.0,South,4.6,-,N/A,,Overcast,180,2014-02-03 20:35:00
2:55 PM,32.0,26.6,80,29.91,10.0,South,5.8,-,N/A,,Overcast,170,2014-02-03 20:55:00
3:15 PM,32.0,26.6,80,29.91,10.0,SSE,6.9,-,N/A,,Overcast,160,2014-02-03 21:15:00
3:35 PM,32.0,26.6,80,29.91,10.0,SSE,4.6,-,N/A,,Overcast,160,2014-02-03 21:35:00
3:55 PM,32.0,28.4,87,29.91,10.0,SSE,6.9,-,N/A,,Overcast,150,2014-02-03 21:55:00
4:15 PM,32.0,28.4,87,29.91,10.0,SE,4.6,-,N/A,,Overcast,130,2014-02-03 22:15:00
4:35 PM,32.0,28.4,87,29.92,10.0,SE,4.6,-,N/A,,Overcast,130,2014-02-03 22:35:00
4:55 PM,32.0,28.4,87,29.92,10.0,SE,4.6,-,N/A,,Overcast,130,2014-02-03 22:55:00
5:15 PM,32.0,28.4,87,29.92,10.0,SE,5.8,-,N/A,,Overcast,130,2014-02-03 23:15:00
5:35 PM,30.2,26.6,86,29.93,10.0,NNW,12.7,17.3,N/A,,Overcast,330,2014-02-03 23:35:00
5:55 PM,28.4,26.6,93,29.93,10.0,North,9.2,-,N/A,,Overcast,350,2014-02-03 23:55:00
6:15 PM,26.6,26.6,100,29.93,10.0,North,10.4,-,N/A,,Overcast,360,2014-02-04 00:15:00
6:35 PM,26.6,26.6,100,29.95,10.0,North,9.2,-,N/A,,Overcast,10,2014-02-04 00:35:00
6:55 PM,26.6,26.6,100,29.95,10.0,North,9.2,-,N/A,,Overcast,360,2014-02-04 00:55:00
7:15 PM,26.6,26.6,100,29.96,10.0,NNE,8.1,-,N/A,,Overcast,20,2014-02-04 01:15:00
7:35 PM,28.4,26.6,93,29.96,10.0,NNE,6.9,-,N/A,,Overcast,30,2014-02-04 01:35:00
7:55 PM,28.4,28.4,100,29.97,10.0,NE,4.6,-,N/A,,Overcast,50,2014-02-04 01:55:00
8:15 PM,30.2,28.4,93,29.97,10.0,East,8.1,-,N/A,,Overcast,100,2014-02-04 02:15:00
8:35 PM,28.4,26.6,93,29.98,10.0,East,10.4,-,N/A,,Overcast,90,2014-02-04 02:35:00
8:55 PM,28.4,24.8,86,29.98,10.0,ESE,9.2,-,N/A,,Overcast,120,2014-02-04 02:55:00
9:15 PM,28.4,24.8,86,29.99,10.0,East,8.1,-,N/A,,Overcast,90,2014-02-04 03:15:00
9:35 PM,26.6,23.0,86,30.00,10.0,East,9.2,-,N/A,,Overcast,100,2014-02-04 03:35:00
9:55 PM,26.6,23.0,86,30.00,10.0,East,6.9,-,N/A,,Overcast,80,2014-02-04 03:55:00
10:10 PM,26.6,23.0,86,30.00,10.0,East,6.9,-,N/A,,Overcast,90,2014-02-04 04:10:00
10:35 PM,26.6,23.0,86,30.00,10.0,East,8.1,-,N/A,,Overcast,100,2014-02-04 04:35:00
10:55 PM,26.6,23.0,86,30.00,10.0,East,5.8,-,N/A,,Overcast,90,2014-02-04 04:55:00
11:15 PM,26.6,23.0,86,30.01,10.0,East,6.9,-,N/A,,Overcast,90,2014-02-04 05:15:00
11:35 PM,26.6,24.8,93,30.01,10.0,ENE,5.8,-,N/A,,Overcast,70,2014-02-04 05:35:00
11:55 PM,26.6,24.8,93,30.00,10.0,NE,5.8,-,N/A,,Overcast,50,2014-02-04 05:55:00